Overview Statistics Trail Chart Weather Telemetry Raw packets
 

This is the latest recevied weather packets stored in our database for station/object 4S6DRJ-13. If no packets are shown the sender has not sent any weather packets the latest 10 day(s).

<< 187 188 189 190 191 192 193 >>
Time Temp. Humidity Pressure Rain* Wind** Luminosity Snow
1788186043 28.89° C 80% 1008.9 hPa 0 mm 1.79 m/s, 80° 0 W/m² -
1788185981 28.89° C 80% 1008.8 hPa 0 mm 1.34 m/s, 213° 0 W/m² -
1788185920 28.89° C 80% 1008.8 hPa 0 mm 1.34 m/s, 294° 0 W/m² -
1788185859 28.89° C 80% 1008.9 hPa 0 mm 1.34 m/s, 164° 0 W/m² -
1788185798 28.89° C 80% 1008.8 hPa 0 mm 0.89 m/s, 284° 0 W/m² -
1788185737 28.33° C 80% 1008.7 hPa 0 mm 0.89 m/s, 242° 0 W/m² -
1788185676 28.33° C 80% 1008.8 hPa 0 mm 0.45 m/s, 278° 0 W/m² -
1788185615 28.33° C 80% 1008.7 hPa 0 mm 0 m/s 0 W/m² -
1788185554 28.33° C 80% 1008.6 hPa 0 mm 1.34 m/s, 206° 0 W/m² -
1788185493 28.89° C 80% 1008.7 hPa 0 mm 0.89 m/s, 252° 0 W/m² -
1788185432 28.33° C 80% 1009.1 hPa 0 mm 0.89 m/s, 270° 0 W/m² -
1788185371 28.89° C 80% 1008.8 hPa 0 mm 0.89 m/s, 237° 0 W/m² -
1788185310 28.89° C 80% 1008.8 hPa 0 mm 1.34 m/s, 235° 0 W/m² -
1788185250 28.89° C 80% 1008.7 hPa 0 mm 0.89 m/s, 225° 0 W/m² -
1788185188 28.89° C 80% 1008.6 hPa 0 mm 1.79 m/s, 231° 0 W/m² -
1788185127 28.89° C 80% 1008.7 hPa 0 mm 0 m/s 0 W/m² -
1788185066 28.89° C 80% 1008.6 hPa 0 mm 0 m/s 0 W/m² -
1788185006 28.33° C 80% 1008.6 hPa 0 mm 0.45 m/s, 301° 0 W/m² -
1788184944 28.89° C 80% 1008.6 hPa 0 mm 0.89 m/s, 200° 0 W/m² -
1788184883 28.89° C 80% 1008.7 hPa 0 mm 1.34 m/s, 300° 0 W/m² -
1788184822 28.89° C 80% 1008.5 hPa 0 mm 2.24 m/s, 235° 0 W/m² -
1788184761 28.89° C 80% 1008.6 hPa 0 mm 1.34 m/s, 190° 0 W/m² -
1788184700 28.89° C 80% 1008.5 hPa 0 mm 0.89 m/s, 207° 0 W/m² -
1788184639 28.89° C 80% 1008.3 hPa 0 mm 1.79 m/s, 222° 0 W/m² -
1788184578 28.89° C 80% 1008.4 hPa 0 mm 0.89 m/s, 223° 0 W/m² -

* Rain latest hour (hover to see other rain measurements)
** Current wind speed in m/s (hover to see current wind gust speed)